Lanai City, HI

12:38 AM HST on December 14, 2017 (GMT -1000)
Lanai City

Weather History for PHNY - September, 2013

Change the Weather History Date:

Wednesday, September 11, 2013

  Actual Average Record
Temperature  
Mean Temperature 78 °F -  
Max Temperature 86 °F 82 °F 88 °F (1954)
Min Temperature 70 °F 66 °F 63 °F (1951)
Cooling Degree Days 13    
Growing Degree Days 28 (Base 50)    
Moisture  
Dew Point 67 °F    
Average Humidity 72    
Maximum Humidity 87    
Minimum Humidity 55    
Precipitation  
Precipitation 0.00 in - - ()
Sea Level Pressure  
Sea Level Pressure 30.03 in    
Wind  
Wind Speed 13 mph (NE)    
Max Wind Speed 22 mph    
Max Gust Speed 23 mph    
Visibility 10 miles    
Events Rain    
Averages and records for this station are not official NWS values.
T = Trace of Precipitation, MM = Missing Value Source: NWS Daily Summary

Daily Weather History Graph

Daily Weather History Graph

Search for Another Location

Airport or City:

Trip Planner

Search our weather history database for the weather conditions in past years. The results will help you decide how hot, cold, wet, or windy it might be!

Date:

Astronomy

Sep. 11, 2013 Rise Set
Actual Time 6:14 AM HST 6:33 PM HST
Civil Twilight 5:51 AM HST 6:56 PM HST
Nautical Twilight 5:26 AM HST 7:22 PM HST
Astronomical Twilight 4:59 AM HST 7:48 PM HST
Moon 12:05 PM HST (9/11) 11:29 PM HST (9/11)
Length of Visible Light 13h 04m
Length of Day
12h 19m
Waxing Crescent, 41% of the Moon is Illuminated
Sep 11
Waxing Crescent
Sep 12
First Quarter
Sep 19
Full
Sep 26
Last Quarter
Oct 4
New

Hourly Weather History & Observations

Time (HST) Temp. Heat Index Dew Point Humidity Pressure Visibility Wind Dir Wind Speed Gust Speed Precip Events Conditions
12:56 AM 70.9 °F - 66.9 °F 87% 30.03 in 10.0 mi NE 11.5 mph - N/A   Clear
1:56 AM 70.9 °F - 65.8 °F 84% 30.01 in 10.0 mi NE 11.5 mph - N/A   Clear
2:56 AM 70.9 °F - 66.9 °F 87% 30.01 in 10.0 mi NE 9.2 mph - N/A   Clear
3:56 AM 72.0 °F - 66.9 °F 84% 30.00 in 10.0 mi NE 10.4 mph - N/A   Clear
4:56 AM 72.0 °F - 63.9 °F 76% 30.00 in 10.0 mi East 12.7 mph - N/A   Clear
5:56 AM 72.0 °F - 64.9 °F 78% 30.02 in 10.0 mi East 10.4 mph 19.6 mph N/A   Clear
6:56 AM 73.9 °F - 63.9 °F 71% 30.04 in 10.0 mi East 9.2 mph - N/A   Clear
7:56 AM 77.0 °F - 63.9 °F 64% 30.06 in 10.0 mi ENE 12.7 mph 21.9 mph N/A   Clear
8:56 AM 77.9 °F - 66.9 °F 69% 30.07 in 10.0 mi ENE 11.5 mph - N/A   Mostly Cloudy
9:56 AM 81.9 °F 85.2 °F 68.9 °F 65% 30.06 in 10.0 mi NE 18.4 mph 23.0 mph 0.00 in Rain Light Rain
10:05 AM 82.4 °F 85.4 °F 68.0 °F 62% 30.14 in 10.0 mi NE 15.0 mph - 0.00 in   Overcast
10:56 AM 82.4 °F 85.4 °F 68.0 °F 62% 30.14 in 10.0 mi NE 15.0 mph - N/A   Mostly Cloudy
11:56 AM 82.9 °F 85.8 °F 68.0 °F 60% 30.05 in 10.0 mi NE 16.1 mph - N/A   Mostly Cloudy
12:56 PM 86.0 °F 89.4 °F 68.0 °F 55% 30.02 in 10.0 mi NE 20.7 mph - N/A   Scattered Clouds
1:56 PM 80.6 °F 83.2 °F 68.0 °F 65% 30.07 in 10.0 mi ENE 11.5 mph - N/A   Overcast
2:56 PM 83.8 °F 87.0 °F 68.0 °F 59% 29.98 in 10.0 mi NE 17.3 mph - N/A   Mostly Cloudy
3:56 PM 83.8 °F 86.5 °F 66.9 °F 57% 29.98 in 10.0 mi NE 21.9 mph - N/A   Clear
4:56 PM 81.0 °F 83.3 °F 66.9 °F 62% 29.98 in 10.0 mi NE 19.6 mph - N/A   Clear
5:56 PM 77.9 °F - 68.0 °F 71% 29.99 in 10.0 mi NE 16.1 mph - N/A   Clear
6:56 PM 74.8 °F - 66.9 °F 76% 30.00 in 10.0 mi NE 18.4 mph 21.9 mph N/A   Clear
7:56 PM 73.4 °F - 68.0 °F 83% 30.08 in - NE 13.8 mph - N/A   Clear
8:56 PM 73.9 °F - 68.0 °F 82% 30.03 in 10.0 mi NE 12.7 mph - N/A   Clear
9:56 PM 72.9 °F - 68.0 °F 85% 30.03 in 10.0 mi NE 16.1 mph - N/A   Clear
10:56 PM 72.9 °F - 66.9 °F 82% 30.03 in 10.0 mi NE 12.7 mph - N/A   Clear
11:56 PM 72.9 °F - 66.9 °F 82% 30.01 in 10.0 mi NE 12.7 mph - N/A   Clear